Ostrava, Czech Republic

7:50 PM CEST on April 29, 2017 (GMT +0200)
Mosnov

Weather History for LKMT - October, 2013

Change the Weather History Date:

Friday, October 11, 2013

  Actual Average Record
Temperature  
Mean Temperature 58 °F -  
Max Temperature 69 °F 52 °F - ()
Min Temperature 47 °F 38 °F - ()
Degree Days  
Heating Degree Days 7    
Growing Degree Days 8 (Base 50)    
Moisture  
Dew Point 51 °F    
Average Humidity 78    
Maximum Humidity 94    
Minimum Humidity 42    
Precipitation  
Precipitation 0.31 in 0.06 in - ()
Sea Level Pressure  
Sea Level Pressure 29.98 in    
Wind  
Wind Speed 4 mph ()    
Max Wind Speed 14 mph    
Max Gust Speed -    
Visibility 6.3 miles    
Events Rain    
T = Trace of Precipitation, MM = Missing Value Source: Averaged Metar Reports

Daily Weather History Graph

Daily Weather History Graph

Search for Another Location

Airport or City:

Trip Planner

Search our weather history database for the weather conditions in past years. The results will help you decide how hot, cold, wet, or windy it might be!

Date:

Astronomy

Oct. 11, 2013 Rise Set
Actual Time 7:02 AM CEST 6:04 PM CEST
Civil Twilight 6:30 AM CEST 6:37 PM CEST
Nautical Twilight 5:53 AM CEST 7:14 PM CEST
Astronomical Twilight 5:15 AM CEST 7:51 PM CEST
Moon 1:49 PM CEST (10/11) 11:11 PM CEST (10/11)
Length of Visible Light 12h 06m
Length of Day
11h 02m
Waxing Crescent, 44% of the Moon is Illuminated
Oct 11
Waxing Crescent
Oct 12
First Quarter
Oct 19
Full
Oct 27
Last Quarter
Nov 3
New

Hourly Weather History & Observations

Time (CEST) Temp. Dew Point Humidity Pressure Visibility Wind Dir Wind Speed Gust Speed Precip Events Conditions
12:00 AM 53.6 °F 48.2 °F 82% 29.86 in 6.2 mi Variable 1.2 mph - N/A   Mostly Cloudy
12:30 AM 53.6 °F 48.2 °F 82% 29.86 in 6.2 mi ESE 3.5 mph - N/A   Scattered Clouds
1:00 AM 53.6 °F 50.0 °F 88% 29.89 in - Variable 2.3 mph - N/A   Clear
1:30 AM 53.6 °F 50.0 °F 88% 29.89 in 6.2 mi NNE 3.5 mph - N/A   Partly Cloudy
2:00 AM 55 °F 48 °F 70% 29.90 in 9 mi 2.2 mph - -   Partly Cloudy
2:00 AM 55.4 °F 48.2 °F 77% 29.89 in - Variable 2.3 mph - N/A   Clear
2:30 AM 51.8 °F 48.2 °F 88% 29.89 in 6.2 mi Variable 2.3 mph - N/A Rain Light Rain
3:00 AM 53.6 °F 50.0 °F 88% 29.92 in - Variable 2.3 mph - N/A   Clear
3:30 AM 53.6 °F 48.2 °F 82% 29.92 in - East 3.5 mph - N/A   Clear
4:00 AM 50.0 °F 48.2 °F 94% 29.92 in - NW 4.6 mph - N/A   Clear
4:30 AM 50.0 °F 48.2 °F 94% 29.92 in - Variable 2.3 mph - N/A   Clear
5:00 AM 50.0 °F 48.2 °F 94% 29.92 in - Variable 2.3 mph - N/A   Clear
5:30 AM 48.2 °F 46.4 °F 93% 29.92 in - Variable 2.3 mph - N/A   Clear
6:00 AM 48.2 °F 46.4 °F 93% 29.92 in 6.2 mi NNE 3.5 mph - N/A   Partly Cloudy
6:30 AM 50.0 °F 46.4 °F 87% 29.92 in 6.2 mi NE 4.6 mph - N/A   Partly Cloudy
7:00 AM 50.0 °F 46.4 °F 87% 29.95 in 6.2 mi NNE 4.6 mph - N/A   Partly Cloudy
7:30 AM 50.0 °F 46.4 °F 87% 29.95 in 6.2 mi NNE 5.8 mph - N/A   Partly Cloudy
8:00 AM 51 °F 48 °F 86% 29.97 in 12 mi NNE 6.7 mph - -   Partly Cloudy
8:00 AM 50.0 °F 48.2 °F 94% 29.95 in - North 6.9 mph - N/A   Clear
8:30 AM 51.8 °F 48.2 °F 88% 29.98 in - NE 5.8 mph - N/A   Clear
9:00 AM 55.4 °F 51.8 °F 88% 29.98 in - NNE 6.9 mph - N/A   Clear
9:30 AM 55.4 °F 51.8 °F 88% 29.98 in - NNE 9.2 mph - N/A   Clear
10:00 AM 57.2 °F 51.8 °F 82% 29.98 in - NNE 9.2 mph - N/A   Clear
10:30 AM 60.8 °F 51.8 °F 72% 29.98 in - NE 6.9 mph - N/A   Clear
11:00 AM 60.8 °F 53.6 °F 77% 29.98 in - NNE 8.1 mph - N/A   Clear
11:30 AM 62.6 °F 51.8 °F 68% 29.98 in - NE 9.2 mph - N/A   Clear
12:00 PM 64.4 °F 53.6 °F 68% 29.98 in - NE 8.1 mph - N/A   Clear
12:30 PM 68.0 °F 51.8 °F 56% 30.01 in - ENE 5.8 mph - N/A   Clear
1:00 PM 68.0 °F 50.0 °F 52% 30.01 in - SE 5.8 mph - N/A   Clear
1:30 PM 68.0 °F 51.8 °F 56% 30.01 in - Variable 4.6 mph - N/A   Clear
2:00 PM 69 °F 51 °F 42% 29.99 in 16 mi 4.5 mph - -   Scattered Clouds
2:00 PM 69.8 °F 50.0 °F 49% 30.01 in - ESE 3.5 mph - N/A   Clear
2:30 PM 68.0 °F 48.2 °F 49% 30.01 in - East 6.9 mph - N/A   Clear
3:00 PM 68.0 °F 50.0 °F 52% 30.01 in - ESE 5.8 mph - N/A   Clear
3:30 PM 68.0 °F 50.0 °F 52% 30.01 in - ESE 6.9 mph - N/A   Clear
4:00 PM 68.0 °F 50.0 °F 52% 30.01 in - ESE 6.9 mph - N/A   Clear
4:30 PM 68.0 °F 51.8 °F 56% 30.01 in - NE 8.1 mph - N/A   Clear
5:00 PM 64.4 °F 53.6 °F 68% 30.01 in - ENE 10.4 mph - N/A   Clear
5:30 PM 64.4 °F 53.6 °F 68% 30.01 in - ENE 6.9 mph - N/A   Clear
6:00 PM 60.8 °F 53.6 °F 77% 30.01 in - NNE 5.8 mph - N/A   Clear
6:30 PM 60.8 °F 53.6 °F 77% 30.01 in 5.6 mi NNE 5.8 mph - N/A   Unknown
7:00 PM 59.0 °F 53.6 °F 82% 30.01 in 5.6 mi NNE 5.8 mph - N/A   Unknown
7:30 PM 59.0 °F 53.6 °F 82% 30.01 in 5.0 mi NE 5.8 mph - N/A   Unknown
8:00 PM 59 °F 53 °F 74% 30.03 in 6 mi NNE 4.5 mph - -   Mist
8:00 PM 59.0 °F 53.6 °F 82% 30.01 in 5.6 mi NNE 4.6 mph - N/A   Unknown
8:30 PM 57.2 °F 51.8 °F 82% 30.04 in 5.0 mi North 4.6 mph - N/A   Unknown
9:00 PM 59.0 °F 53.6 °F 82% 30.04 in 5.0 mi NE 3.5 mph - N/A   Unknown
9:30 PM 57.2 °F 53.6 °F 88% 30.04 in 5.0 mi NNE 4.6 mph - N/A   Unknown
10:00 PM 59.0 °F 53.6 °F 82% 30.04 in 5.6 mi NE 2.3 mph - N/A   Unknown
10:30 PM 57.2 °F 53.6 °F 88% 30.06 in 5.0 mi SW 6.9 mph - N/A Rain Light Rain
11:00 PM 57.2 °F 55.4 °F 94% 30.06 in 5.0 mi SW 13.8 mph - N/A   Overcast
11:30 PM 57.2 °F 55.4 °F 94% 30.09 in 4.3 mi SW 11.5 mph - N/A Rain Light Rain
11:40 PM 55.4 °F 53.6 °F 94% 30.12 in 4.3 mi SSW 10.4 mph - N/A Rain Rain
11:45 PM 55.4 °F 53.6 °F 94% 30.12 in 3.7 mi SSW 10.4 mph - N/A Rain Rain